Location: Kergonan
(48.2337°N, 4.5518°W)
Time: 21:22:06
(UTC+00:00)

Cosmos 2218 Rocket - Pass Details

Date: 18 January 2020
Orbit: 956 x 1006 km, 82.9° (Epoch: 27 February)

Event Time Altitude Azimuth Distance (km) Brightness Sun altitude
Rises 06:55:19 0° 348° (NNW) 3,749 6.8 -10.9°
Reaches altitude 10° 06:57:54 10° 345° (NNW) 2,794 6.1 -10.5°
Maximum altitude 07:04:12 61° 267° (W) 1,134 4.1 -9.5°
Drops below altitude 10° 07:10:25 10° 189° (S) 2,756 6.5 -8.6°
Sets 07:12:56 0° 186° (S) 3,695 7.2 -8.2°
